Location: Chrząstowo
(52.0654°N, 17.1290°E)
Time: 20:48:45
(UTC+01:00)

Envisat - Pass Details

Date: 13 December 2019
Orbit: 764 x 766 km, 98.1° (Epoch: 19 January)

Event Time Altitude Azimuth Distance (km) Brightness Sun altitude
Rises 16:46:42 0° 141° (SE) 3,226 6.1 -9.6°
Reaches altitude 10° 16:49:06 10° 134° (SE) 2,303 5.3 -9.9°
Maximum altitude 16:53:50 41° 65° (ENE) 1,103 3.4 -10.6°
Drops below altitude 10° 16:58:36 10° 357° (N) 2,318 5.3 -11.2°
Sets 17:01:01 0° 350° (N) 3,248 6.1 -11.6°
